Terug naar catalogus

STARLINK-37041

ActiefCommunicatieSSO
NORAD 68104·PAYLOAD·🇺🇸 United States

Gelanceerd Mar 8, 2026 vanaf Vandenberg Space Force Base

Loading…

Volgende Passages (komende 24 uur)

TLE

VersSource: CelesTrak SupGP

Epoch: Sep 15, 2026, 02:43 UTC

1 68104C 26044D   26258.11368056 -.00016696  00000+0 -51850-3 0  2587
2 68104  97.2850 217.0869 0001796  90.3786  94.7399 15.33434786    17

Volg STARLINK-37041 in realtime met AllMySat

Download on the App Store